Regional Weather Roundup
Issued by NWS Charleston, WV

Home | Current Version | Previous Version | Text Only | Print | Product List | Glossary Off
Versions: 1 2 3 4 5 6 7 8 9 10 11 12 13 14 15 16 17 18 19 20 21 22 23 24 25 26 27 28 29 30 31 32 33 34 35 36 37 38 39 40 41 42 43 44 45 46 47 48 49 50

584
ASUS41 KRLX 061710
RWRRLX
West Virginia Regional Weather Roundup
National Weather Service Charleston WV
1200 PM EST SAT FEB 06 2016

Note: "fair" indicates few or no clouds below 12,000 feet with no
significant weather and/or obstructions to visibility.

WVZ003-061800-
Northern Panhandle of West Virginia

CITY           SKY/WX    TMP DP  RH WIND       PRES   REMARKS
WHEELING         N/A     39  18  42 W9        30.28F
$$

WVZ009-061800-
Northwest West Virginia

CITY           SKY/WX    TMP DP  RH WIND       PRES   REMARKS
PARKERSBURG      N/A     41  18  39 SW8       30.35F
$$

WVZ006-061800-
Western West Virginia

CITY           SKY/WX    TMP DP  RH WIND       PRES   REMARKS
HUNTINGTON       N/A     45  19  35 SW8       30.34F
$$

WVZ015-061800-
West Central West Virginia

CITY           SKY/WX    TMP DP  RH WIND       PRES   REMARKS
CHARLESTON       N/A     44  17  33 W13       30.33F
$$

WVZ022-031-061800-
North Central West Virginia

CITY           SKY/WX    TMP DP  RH WIND       PRES   REMARKS
CLARKSBURG       N/A     42  18  37 SW12      30.31F
MORGANTOWN       N/A     41  15  35 SW8G17    30.30F
$$

WVZ025-035-042-045-061800-
Southern West Virginia

CITY           SKY/WX    TMP DP  RH WIND       PRES   REMARKS
BECKLEY          N/A     38  14  37 W8        30.30F
LOGAN            N/A     43  18  36 VRB3      30.32F
BLUEFIELD        N/A     33  11  39 W6        30.31F
LEWISBURG        N/A     36  18  48 SW6       30.32F
$$

WVZ047-061800-
Northern Mountains of West Virginia

CITY           SKY/WX    TMP DP  RH WIND       PRES   REMARKS
ELKINS           N/A     39  14  36 SW8       30.30F
$$

WVZ052-061800-
Eastern Panhandle of West Virginia

CITY           SKY/WX    TMP DP  RH WIND       PRES   REMARKS
MARTINSBURG      N/A     40  17  39 S10       30.36F
PETERSBURG       N/A     42  18  37 CALM      30.33F
$$




USA.gov is the U.S. government's official web portal to all federal, state and local government web resources and services.